Vorticity
7 9 10 12 7 3 16 -5 9 7 12 12 14 4 11 3 -10 -4 0 -11 -0 13 12 8 6 13 5 5 4 4 5 4 4 4 7 7 8 10 10 8 5 4 4 1 4 4 4 8 6
9 10 9 10 -0 -1 6 9 8 6 8 11 4 10 5 3 6 3 -11 1 12 5 7 9 6 1 5 4 2 3 1 4 7 5 7 8 8 9 8 7 5 4 4 2 4 4 3 8 6
10 9 14 7 16 0 1 10 -1 6 -6 5 3 -1 6 13 12 5 12 10 5 4 3 10 5 9 6 3 4 3 2 3 3 3 3 9 10 9 8 6 5 3 5 4 4 4 3 7 6
8 7 6 3 -11 -8 5 8 14 8 12 -2 2 4 10 3 12 3 4 8 9 8 9 9 4 4 4 5 3 3 4 4 3 6 3 2 6 5 5 9 6 3 3 4 5 4 3 6 6
7 6 6 1 2 5 8 1 11 1 11 9 11 1 -4 13 7 11 -0 6 -0 5 4 6 11 9 7 8 7 7 6 4 4 5 5 4 7 9 5 4 8 5 4 5 4 4 3 6 6
8 8 -0 10 10 9 10 10 4 -3 7 6 7 5 0 1 5 2 2 1 3 5 4 3 3 6 7 8 7 9 10 10 5 5 5 8 8 5 4 5 5 5 6 5 5 4 3 6 6
6 4 1 2 3 6 8 8 10 9 2 1 11 6 6 -1 0 14 5 -5 -0 8 3 4 0 4 3 -1 1 2 7 4 12 8 8 10 6 5 9 5 7 3 5 6 5 3 3 4 5
8 8 5 8 7 7 10 10 9 7 8 10 3 18 8 2 1 5 18 -2 2 6 5 4 4 8 8 10 5 3 7 9 4 4 6 8 7 6 3 7 5 7 5 5 5 3 3 4 5
4 4 4 5 9 5 3 4 7 8 11 5 11 1 7 6 12 2 11 15 2 3 4 3 8 7 3 9 6 7 7 7 3 5 6 10 9 12 4 6 2 8 5 5 5 4 3 4 5
5 2 8 5 6 2 2 2 5 7 7 8 10 10 7 3 6 3 1 10 8 -4 8 5 7 7 5 5 2 -0 4 16 9 8 8 10 15 11 5 5 3 7 4 4 5 3 2 3 6
5 4 2 2 1 2 4 4 6 6 6 9 9 11 7 10 -1 8 0 2 5 6 -0 9 6 4 8 3 4 6 0 -6 18 6 7 9 11 13 6 3 8 5 5 4 4 3 3 4 5
6 5 5 5 4 5 5 5 5 5 6 7 11 8 8 10 8 5 12 6 4 6 6 2 6 8 3 8 5 3 3 5 1 37 12 11 4 12 7 6 5 3 5 5 6 5 3 3 5
6 5 5 6 6 5 5 4 6 4 5 5 10 11 11 8 11 6 6 6 9 3 6 -0 0 -0 5 5 6 5 2 0 1 0 15 -9 12 2 7 4 3 4 3 5 5 5 3 5 5
2 2 3 4 6 8 9 3 5 3 6 5 6 7 10 11 9 11 -1 9 9 5 2 -3 -4 1 0 2 -1 2 5 1 -0 1 -1 5 -2 12 5 7 3 4 7 10 2 5 4 5 3
8 5 1 6 21 15 10 16 28 37 40 33 24 18 12 11 12 12 10 2 8 9 5 2 -2 -0 1 8 9 8 7 6 9 11 3 1 18 4 10 16 -2 11 4 1 28 -1 5 3 3
6 15 20 1 24 18 19 6 -20 26 34 26 24 15 14 15 25 14 13 6 10 11 11 7 6 5 5 7 11 1 5 13 15 11 13 5 10 17 15 12 1 -0 26 9 20 25 8 4 3
16 7 14 20 4 1 4 3 1 5 9 8 11 17 9 15 19 31 20 17 3 10 10 8 4 3 -1 9 8 10 1 -2 11 14 6 10 6 12 9 4 0 10 -2 23 -11 54 23 -2 3
-4 4 -1 1 -2 13 10 3 12 18 4 11 10 6 16 11 17 28 37 26 4 3 5 7 5 7 10 -11 -6 3 8 9 1 11 10 3 12 11 31 27 16 21 12 1 3 29 6 10 3
2 2 3 3 16 2 5 15 23 28 31 11 16 20 9 20 16 23 40 39 6 6 10 7 14 3 6 8 3 0 12 15 3 2 15 5 11 14 1 40 20 15 -0 30 -26 48 6 -1 2
1 3 7 32 -4 5 7 26 12 25 13 25 16 10 11 9 12 22 17 49 7 -1 7 -2 -4 1 -1 10 -2 7 12 15 8 -4 17 6 11 6 -12 30 15 15 1 -4 27 5 14 11 -1
7 6 18 8 -5 16 5 37 -3 17 12 15 5 8 10 16 22 26 15 24 14 1 0 -4 5 5 3 5 15 16 16 11 8 0 3 6 21 5 -8 -1 40 10 19 17 9 28 11 -8 4
15 13 4 3 20 -4 -4 -1 29 10 11 8 4 5 13 11 10 15 16 19 18 0 2 -2 -3 -5 8 17 6 12 6 5 9 12 11 16 11 -13 14 4 32 25 13 15 2 15 21 -1 7
4 3 -2 1 10 23 22 16 13 3 12 4 7 3 9 3 15 11 9 14 13 6 8 5 9 11 11 18 9 14 14 11 -1 18 29 7 26 -0 23 19 10 21 0 12 22 24 21 -8 9
1 10 22 29 26 19 28 6 14 4 -6 11 17 9 16 12 10 9 9 9 7 9 4 5 24 18 36 40 28 22 20 4 10 45 8 35 11 -1 37 11 10 13 -1 -9 4 11 -0 15 10
14 15 11 15 10 1 6 16 -10 3 15 20 15 14 12 7 11 12 15 21 17 10 22 35 14 13 8 -5 -5 23 7 10 -10 2 43 16 45 11 21 35 15 13 27 23 -14 -1 -1 -2 5
13 14 -0 10 8 1 13 5 0 -4 20 17 8 10 5 8 14 14 15 13 46 57 49 25 12 60 20 48 7 6 -10 -9 31 41 7 20 -24 5 34 12 39 -8 3 9 22 11 -3 -3 17
6 8 9 7 29 9 5 18 22 10 18 14 10 9 10 19 11 18 1 -1 -7 -7 12 10 31 -10 -3 42 25 50 44 -3 1 5 64 -20 -1 1 30 27 3 24 33 10 24 18 -8 17 2
8 18 14 13 11 12 9 14 -14 25 18 14 11 15 18 28 30 18 19 40 15 9 10 10 9 7 6 4 5 6 4 5 5 4 5 5 23 42 20 1 19 28 39 14 22 34 23 51 -1
3 4 13 14 10 8 9 0 6 24 22 12 11 22 13 15 13 25 28 30 11 5 2 5 4 3 4 4 4 5 6 5 5 5 6 5 4 2 6 5 2 15 21 21 -9 -4 7 34 7
10 -6 37 5 4 8 8 1 6 7 13 17 18 26 24 29 17 12 3 -1 2 2 2 2 2 2 2 4 3 3 3 4 5 5 4 4 4 4 5 6 6 3 1 6 14 3 -2 4 2
Height
3112 3114 3116 3120 3126 3124 3123 3125 3125 3124 3126 3126 3127 3129 3131 3133 3137 3143 3139 3140 3141 3143 3145 3146 3147 3148 3148 3148 3149 3150 3151 3152 3152 3153 3155 3156 3156 3157 3158 3160 3161 3162 3163 3165 3166 3167 3167 3167 3166
3109 3111 3114 3115 3120 3122 3122 3123 3124 3123 3124 3124 3125 3126 3129 3132 3135 3136 3137 3138 3140 3142 3144 3145 3146 3147 3148 3148 3148 3149 3150 3151 3152 3152 3153 3154 3155 3156 3157 3159 3160 3161 3163 3164 3166 3167 3167 3167 3167
3107 3108 3112 3114 3116 3118 3120 3120 3121 3121 3122 3122 3124 3126 3128 3130 3132 3134 3136 3137 3138 3140 3142 3144 3145 3145 3147 3147 3148 3149 3149 3150 3151 3152 3152 3153 3154 3155 3157 3158 3160 3161 3162 3164 3165 3166 3167 3167 3167
3105 3108 3111 3110 3112 3114 3117 3117 3117 3119 3119 3120 3122 3124 3127 3126 3127 3128 3132 3135 3136 3137 3139 3141 3143 3143 3144 3145 3146 3147 3149 3149 3150 3151 3152 3153 3153 3154 3155 3157 3158 3160 3162 3163 3164 3165 3166 3166 3166
3103 3105 3107 3106 3108 3111 3114 3114 3115 3116 3116 3116 3119 3121 3124 3121 3123 3125 3128 3130 3134 3135 3136 3137 3139 3141 3142 3143 3144 3145 3146 3147 3148 3149 3150 3151 3152 3153 3153 3155 3157 3158 3160 3162 3163 3164 3165 3166 3166
3101 3103 3103 3103 3105 3108 3110 3112 3113 3113 3114 3115 3116 3118 3120 3121 3122 3124 3124 3126 3128 3131 3133 3134 3135 3136 3139 3140 3142 3143 3144 3145 3146 3147 3147 3148 3150 3151 3152 3154 3154 3156 3158 3160 3161 3162 3164 3165 3165
3099 3100 3099 3101 3103 3104 3106 3108 3108 3109 3110 3112 3112 3114 3116 3119 3120 3121 3122 3122 3123 3127 3128 3130 3132 3133 3135 3137 3139 3140 3141 3143 3143 3145 3146 3146 3147 3149 3150 3151 3153 3154 3156 3158 3159 3161 3162 3163 3164
3097 3098 3096 3098 3100 3101 3103 3103 3104 3105 3106 3108 3109 3108 3113 3115 3117 3118 3119 3120 3120 3122 3125 3127 3128 3129 3131 3133 3135 3136 3138 3139 3141 3141 3143 3143 3144 3145 3147 3148 3150 3153 3154 3155 3157 3159 3160 3161 3162
3094 3095 3094 3096 3097 3097 3099 3100 3100 3100 3101 3102 3104 3104 3106 3110 3112 3114 3115 3116 3116 3118 3120 3122 3124 3126 3127 3129 3131 3133 3134 3136 3137 3138 3139 3140 3141 3142 3144 3145 3148 3150 3151 3153 3154 3156 3158 3159 3160
3091 3091 3093 3093 3093 3093 3094 3096 3097 3097 3096 3097 3098 3099 3101 3104 3107 3109 3110 3112 3112 3113 3116 3117 3119 3122 3123 3125 3127 3128 3129 3131 3133 3135 3136 3138 3138 3139 3141 3142 3144 3147 3149 3150 3151 3153 3155 3156 3158
3088 3088 3089 3090 3089 3088 3089 3091 3091 3089 3089 3094 3092 3092 3095 3097 3099 3102 3105 3106 3106 3107 3109 3113 3114 3116 3119 3121 3123 3124 3125 3126 3128 3130 3132 3134 3135 3137 3137 3138 3140 3142 3144 3146 3148 3149 3151 3153 3155
3086 3084 3085 3086 3087 3085 3085 3083 3083 3083 3082 3085 3087 3085 3085 3088 3091 3094 3096 3099 3101 3102 3104 3106 3109 3111 3112 3116 3119 3120 3122 3123 3124 3125 3126 3129 3132 3134 3134 3135 3136 3139 3140 3142 3144 3146 3148 3150 3151
3080 3081 3081 3081 3082 3081 3079 3078 3077 3072 3076 3080 3081 3079 3076 3078 3082 3085 3088 3092 3095 3097 3099 3101 3102 3105 3108 3110 3113 3116 3118 3119 3120 3121 3122 3125 3127 3129 3131 3131 3132 3135 3136 3138 3140 3142 3144 3146 3147
3077 3077 3078 3078 3079 3075 3073 3071 3069 3065 3070 3070 3070 3069 3069 3068 3071 3076 3080 3084 3087 3090 3092 3093 3095 3099 3101 3104 3107 3110 3112 3114 3115 3117 3117 3118 3120 3121 3125 3126 3127 3128 3131 3132 3133 3137 3138 3141 3142
3074 3074 3073 3074 3073 3070 3065 3062 3060 3062 3062 3061 3061 3060 3059 3058 3059 3063 3070 3074 3078 3081 3084 3086 3089 3091 3095 3099 3101 3103 3105 3107 3109 3110 3111 3111 3112 3114 3116 3118 3119 3122 3123 3125 3123 3128 3134 3134 3138
3071 3069 3067 3069 3066 3064 3061 3052 3058 3059 3056 3053 3052 3051 3050 3051 3051 3052 3059 3064 3069 3073 3077 3081 3084 3087 3090 3093 3095 3097 3098 3098 3099 3101 3102 3103 3104 3105 3107 3108 3112 3114 3114 3116 3114 3116 3121 3129 3132
3067 3067 3065 3065 3064 3061 3060 3050 3054 3054 3051 3046 3046 3046 3045 3042 3042 3042 3046 3056 3062 3066 3070 3075 3078 3081 3084 3085 3087 3088 3090 3091 3091 3091 3092 3093 3094 3096 3096 3098 3100 3101 3105 3107 3106 3108 3112 3119 3127
3065 3065 3064 3063 3063 3058 3056 3049 3047 3047 3043 3041 3041 3039 3038 3035 3034 3033 3034 3044 3054 3060 3064 3068 3071 3074 3076 3077 3078 3080 3081 3083 3083 3084 3083 3083 3084 3085 3085 3084 3088 3089 3091 3097 3101 3104 3107 3108 3118
3065 3065 3062 3062 3060 3053 3051 3044 3039 3037 3036 3036 3036 3034 3032 3031 3028 3025 3025 3035 3045 3053 3058 3062 3065 3068 3070 3072 3072 3072 3073 3074 3076 3076 3076 3075 3075 3077 3076 3073 3076 3080 3082 3088 3091 3096 3098 3106 3114
3064 3063 3061 3058 3058 3053 3048 3043 3037 3035 3034 3033 3033 3032 3030 3027 3025 3022 3023 3030 3042 3048 3053 3056 3060 3062 3064 3064 3064 3064 3065 3066 3068 3069 3068 3068 3068 3069 3067 3065 3066 3071 3074 3077 3082 3084 3089 3094 3102
3063 3062 3060 3058 3055 3051 3047 3040 3039 3037 3035 3033 3031 3030 3027 3025 3024 3022 3023 3028 3037 3044 3048 3051 3053 3055 3056 3057 3057 3057 3057 3059 3060 3061 3059 3060 3059 3061 3059 3057 3059 3064 3066 3069 3073 3077 3082 3090 3097
3060 3059 3058 3057 3056 3051 3050 3046 3039 3036 3034 3033 3032 3029 3027 3026 3025 3025 3026 3028 3033 3038 3042 3045 3047 3049 3050 3051 3050 3050 3051 3051 3053 3052 3051 3050 3051 3053 3054 3055 3056 3054 3057 3057 3065 3071 3074 3081 3088
3059 3058 3057 3055 3053 3051 3048 3048 3037 3035 3033 3032 3030 3029 3028 3026 3026 3025 3027 3028 3031 3035 3038 3039 3041 3042 3043 3044 3043 3044 3044 3044 3047 3044 3043 3040 3042 3045 3045 3047 3048 3049 3051 3053 3057 3058 3065 3075 3080
3058 3056 3054 3051 3050 3049 3044 3045 3036 3033 3031 3029 3027 3026 3026 3025 3025 3026 3027 3028 3029 3031 3033 3034 3035 3036 3036 3037 3038 3038 3039 3040 3039 3035 3033 3031 3034 3037 3035 3039 3041 3043 3045 3048 3052 3055 3061 3068 3076
3056 3056 3054 3054 3051 3047 3042 3042 3034 3032 3029 3027 3025 3024 3024 3024 3024 3024 3025 3025 3026 3027 3028 3029 3030 3031 3033 3032 3033 3031 3034 3036 3036 3033 3030 3029 3030 3030 3031 3034 3037 3039 3040 3042 3046 3049 3053 3058 3063
3056 3057 3057 3057 3048 3043 3041 3038 3034 3031 3027 3025 3024 3023 3023 3023 3023 3022 3023 3023 3024 3023 3024 3027 3026 3026 3028 3029 3031 3030 3032 3033 3032 3031 3027 3027 3027 3025 3028 3033 3034 3036 3038 3039 3042 3046 3048 3051 3053
3056 3055 3055 3051 3045 3043 3039 3036 3032 3028 3025 3024 3023 3023 3022 3021 3021 3021 3021 3022 3022 3021 3021 3021 3024 3024 3025 3026 3027 3027 3028 3030 3030 3028 3027 3026 3025 3026 3028 3028 3029 3031 3033 3036 3036 3039 3042 3045 3046
3057 3055 3053 3050 3046 3040 3037 3035 3032 3027 3025 3023 3023 3021 3020 3019 3019 3020 3021 3022 3023 3023 3023 3024 3025 3026 3027 3028 3029 3028 3028 3028 3029 3028 3027 3026 3025 3024 3026 3026 3027 3028 3028 3030 3032 3034 3035 3036 3038
3057 3055 3052 3050 3047 3044 3041 3038 3033 3029 3026 3026 3024 3023 3022 3022 3023 3022 3023 3024 3023 3025 3027 3029 3028 3029 3030 3031 3031 3030 3030 3030 3029 3028 3027 3027 3026 3026 3025 3025 3025 3025 3025 3025 3026 3027 3029 3030 3031
3056 3054 3050 3049 3048 3045 3044 3041 3036 3033 3030 3029 3027 3027 3027 3027 3027 3027 3026 3028 3031 3033 3034 3034 3034 3034 3034 3033 3032 3031 3029 3029 3028 3027 3026 3025 3024 3024 3023 3023 3022 3022 3021 3022 3021 3022 3023 3024 3025